Location: Auckland
(36.8670°S, 174.7670°E)
Time: 13:06:34
(UTC+12:00)

Transit 2A Rocket - All Passes

Search period start: 23 July 2019 00:00
Search period end: 02 August 2019 00:00
Orbit: 588 x 915 km, 66.7° (Epoch: 22 July)

Date Brightness Start Highest point End Pass type
(mag) Time Alt. Az. Time Alt. Az. Time Alt. Az.
23 Jul - 00:28:49 10° SSW 00:34:29 77° WNW 00:40:29 10° NNE night (unlit)
23 Jul - 13:23:01 10° ENE 13:24:27 11° ENE 13:25:55 10° E daylight
23 Jul - 15:02:02 10° NW 15:06:18 56° WSW 15:10:55 10° SSE daylight
23 Jul - 22:06:56 10° SSE 22:08:24 11° SE 22:09:53 10° ESE night (unlit)
23 Jul - 23:46:21 10° SSW 23:51:58 64° ESE 23:57:55 10° NE night (unlit)
24 Jul - 01:30:23 10° WSW 01:34:07 18° WNW 01:38:00 10° NW night (unlit)
24 Jul - 14:19:30 10° NNW 14:23:48 74° ENE 14:28:27 10° SSE daylight
24 Jul - 16:05:04 10° WSW 16:07:01 12° SW 16:09:02 10° SSW daylight
24 Jul - 23:04:06 10° SSW 23:09:20 39° ESE 23:14:53 10° NE night (unlit)
25 Jul - 00:46:51 10° SW 00:51:50 31° WNW 00:57:02 10° N night (unlit)
25 Jul - 13:37:28 10° N 13:41:26 36° ENE 13:45:39 10° SE daylight
25 Jul - 15:20:43 10° W 15:24:07 21° SW 15:27:43 10° S daylight
25 Jul - 22:22:05 10° S 22:26:36 24° SE 22:31:19 10° ENE night (unlit)
26 Jul - 00:03:55 10° SW 00:09:28 54° WNW 00:15:19 10° N night (unlit)
26 Jul - 12:56:11 10° NNE 12:59:12 18° ENE 13:02:20 10° ESE daylight
26 Jul - 14:37:17 10° NW 14:41:22 37° SW 14:45:44 10° SSE daylight
26 Jul - 21:40:30 10° SSE 21:43:43 15° SE 21:47:03 10° E night (unlit)
26 Jul - 23:21:17 10° SSW 23:27:00 90° ESE 23:33:03 10° NNE night (unlit)
27 Jul - 01:06:54 10° W 01:08:56 12° WNW 01:11:01 10° WNW night (unlit)
27 Jul - 13:54:25 10° NW 13:58:45 71° WSW 14:03:27 10° SSE daylight
27 Jul - 22:38:53 10° SSW 22:44:27 54° ESE 22:50:19 10° NE night (unlit)
28 Jul - 00:22:23 10° WSW 00:26:43 22° WNW 00:31:11 10° NNW night (unlit)
28 Jul - 13:12:02 10° NNW 13:16:18 58° ENE 13:20:53 10° SE daylight
28 Jul - 14:56:41 10° W 14:59:20 15° SW 15:02:06 10° S daylight
28 Jul - 21:56:41 10° S 22:01:47 33° SE 22:07:07 10° ENE night (unlit)
28 Jul - 23:39:07 10° SW 23:44:24 38° WNW 23:49:54 10° N night (unlit)
29 Jul - 12:30:13 10° NNE 12:33:58 29° ENE 12:37:56 10° SE daylight
29 Jul - 14:12:45 10° WNW 14:16:28 25° SW 14:20:26 10° S daylight
29 Jul - 21:14:48 10° S 21:18:59 21° SE 21:23:21 10° E night (unlit)
29 Jul - 22:56:18 10° SW 23:01:59 65° WNW 23:07:58 10° NNE night (unlit)
30 Jul - 11:49:20 10° NE 11:51:46 15° ENE 11:54:17 10° ESE daylight
30 Jul - 13:29:32 10° NW 13:33:46 46° WSW 13:38:20 10° SSE daylight
30 Jul - 20:33:28 10° SSE 20:36:04 13° SE 20:38:43 10° ESE visible
30 Jul - 22:13:45 10° SSW 22:19:30 76° ESE 22:25:33 10° NNE night (unlit)
30 Jul - 23:58:23 10° WSW 00:01:33 15° WNW 00:04:47 10° NW night (unlit)
31 Jul - 12:46:50 10° NNW 12:51:13 89° SW 12:55:57 10° SSE daylight
31 Jul - 14:33:27 10° WSW 14:34:37 11° SW 14:35:47 10° SSW daylight
31 Jul - 21:31:25 10° SSW 21:36:54 45° ESE 21:42:39 10° NE night (unlit)
31 Jul - 23:14:32 10° SW 23:19:18 26° WNW 23:24:12 10° NNW night (unlit)
01 Aug - 12:04:38 10° N 12:08:48 45° ENE 12:13:16 10° SE daylight
01 Aug - 13:48:31 10° W 13:51:39 18° SW 13:54:58 10° S daylight
01 Aug - 20:49:19 10° S 20:54:11 28° SE 20:59:17 10° ENE visible
01 Aug - 22:31:27 10° SW 22:36:57 45° WNW 22:42:41 10° N night (unlit)
